Weather in Greymouth

New Zealand     42°27′44″S   171°11′48″E
temp.,
°C
wind,
m/s
gust,
m/s
humid.,
%
clouds,
%
prec.,
mm/h
press.,
hPa
HPBL,
m
25 february, thu
thu2501:00+15sw0198100 0.4 101934
04:00+14ne0098100 0.0 101923
07:00+14e119897 0.0 102028
10:00+16se019499 0.0 102188
13:00+17w1192100 0.1 1022165
16:00+19ne1282100 0.1 1021345
19:00+18wnw228894 0.4 1021209
22:00+15s119784 0.1 102325
26 february, fri
fri2601:00+16e119586 0.3 102224
04:00+16ese1198100 0.3 102223
07:00+16ene1198100 0.5 102123
10:00+18n1396100 0.4 1022264
13:00+18nnw4787100 1.3 1021502
16:00+18nnw2590100 0.7 1020411
19:00+18nnw2486100 0.8 1020381
22:00+16ese1195100 0.0 102023
27 february, sat
sat2701:00+14e119896 0.0 102023
04:00+14ese2298100 0.0 101869
07:00+14e1298100 0.0 101741
10:00+18nne1282100 0.0 1018325
13:00+21wnw2267100 0.0 1017613
16:00+20wnw347088 0.1 1015565
19:00+18wnw237746 0.1 1015356
22:00+14e11950 0.0 101525
28 february, sun
sun2801:00+13e12960 0.0 101628
04:00+13e229722 0.0 101444
07:00+13e229617 0.0 101539
10:00+19ene127055 0.0 1015333
13:00+23wnw325334 0.0 1015787
16:00+21wnw34597 0.0 1014532
19:00+19w126733 0.0 1013296
22:00+15ene018778 0.0 101523
1 march, mon
mon101:00+15ese228679 0.0 101541
04:00+13e229453 0.0 101437
07:00+14e228968 0.1 101468
10:00+17ese2380100 0.3 1013214
13:00+24w1249100 0.3 10121291
16:00+21nw455645 0.3 1010762
19:00+18w127473 0.4 1009295
22:00+16sse1180100 0.0 101028